Regional Weather Roundup
Issued by NWS Kansas City/Pleasant Hill, MO

Home | Current Version | Previous Version | Text Only | Print | Product List | Glossary On
Versions: 1 2 3 4 5 6 7 8 9 10 11 12 13 14 15 16 17 18 19 20 21 22 23 24 25 26 27
000
ASUS43 KEAX 281710
RWREAX

WEATHER ROUNDUP FOR EASTERN KANSAS AND NORTHWEST MISSOURI
NATIONAL WEATHER SERVICE KANSAS CITY/PLEASANT HILL MO
1100 AM CST TUE FEB 28 2017

KSZ040-057-103>105-MOZ028-029-037-043-281800-
...KANSAS CITY METROPOLITAN AREA...

CITY           SKY/WX    TMP DP  RH WIND       PRES   REMARKS
K.C. INTL      CLOUDY    67  56  67 SW16      29.64F
K.C. DOWNTOWN  CLOUDY    70  56  61 SW16G28   29.65F
LEES SUMMIT    PTSUNNY   71  57  61 SW21G29   29.67F
OLATHE - IXD   MOSUNNY   70  54  56 SW24G35   29.67F
OLATHE - OJC   PTSUNNY   68  55  63 SW23G29   29.66F
LAWRENCE       CLOUDY    69  53  56 S17G28    29.64F

$$

MOZ001>008-011>017-020>025-030>033-038>040-044>046-053-054-281800-
...NORTHERN AND CENTRAL MISSOURI...

CITY           SKY/WX    TMP DP  RH WIND       PRES   REMARKS
ST. JOSEPH     CLOUDY    67  58  72 SW17G25   29.62F
MOSBY          CLOUDY    68  54  60 SW13G24   29.66S
WARRENSBURG    CLOUDY    72  55  56 S25G33    29.68S
WHITEMAN AFB   NOT AVBL
CLINTON        CLOUDY    72  59  64 SW17G29   29.71F
SEDALIA        CLOUDY    73  60  63 SW24G31   29.70F
WARSAW         NOT AVBL
CHILLICOTHE      N/A     68  58  70 SW15G23   29.66F
KIRKSVILLE     CLOUDY    68  57  68 SW14G31   29.67F

$$

MOZ041-047>049-056>058-063>065-088>090-097-281800-
...EASTERN AND SOUTHERN MISSOURI...

CITY           SKY/WX    TMP DP  RH WIND       PRES   REMARKS
ST. LOUIS INTL CLOUDY    69  58  67 SW17G26   29.81S
SPIRIT OF STL  CLOUDY    69  59  70 SW15      29.79F
COLUMBIA       CLOUDY    71  60  68 S22G29    29.73F
JEFFERSON CITY CLOUDY    70  59  68 S17G25    29.74F
ROLLA          CLOUDY    67  59  75 S14       29.80S
OSAGE BEACH    CLOUDY    71  60  68 S22G28    29.76F
SPRINGFIELD    CLOUDY    72  61  68 S26G33    29.80F
BRANSON        CLOUDY    72  59  64 SW13G22   29.87S
JOPLIN         MOSUNNY   74  61  63 SW30G41   29.76F
WEST PLAINS    CLOUDY    67  60  78 SW17G25   29.90R

$$

IAZ060-094-KSZ022-034>040-054-083-096-NEZ052-066-093-281800-
...KANSAS...SOUTHEAST NEBRASKA AND IOWA...

CITY           SKY/WX    TMP DP  RH WIND       PRES   REMARKS
TOPEKA         CLOUDY    66  53  63 SW15G22   29.63F
MANHATTAN      CLOUDY    55  47  74 SW9       29.65R
EMPORIA        MOSUNNY   68  40  35 SW20G29   29.67F
CHANUTE        CLOUDY    71  56  58 SW24G32   29.73R
WICHITA        CLOUDY    60  43  53 S10       29.70R
OMAHA          CLOUDY    45  39  79 N8        29.64R
LINCOLN        CLOUDY    44  39  82 W6        29.67F
FALLS CITY     CLOUDY    61  49  64 W12       29.62S
LAMONI         MOSUNNY   66  54  65 SW15G28   29.61F
DES MOINES     PTSUNNY   63  46  54 W12       29.62R

$$





USA.gov is the U.S. government's official web portal to all federal, state and local government web resources and services.